This is the latest recevied weather packets stored in our database for station/object KA1AL. If no packets are shown the sender has not sent any weather packets the latest 10 day(s).
| Time | Temp. | Humidity | Pressure | Rain* | Wind** | Luminosity | Snow |
|---|---|---|---|---|---|---|---|
| 1778172917 | 11.67° C | 68% | 1003 hPa | 0 mm | - | 201 W/m² | - |
| 1778172614 | 11.67° C | 67% | 1003.2 hPa | 0 mm | - | 147 W/m² | - |
| 1778172310 | 11.67° C | 68% | 1003.3 hPa | 0 mm | - | 134 W/m² | - |
| 1778172008 | 12.22° C | 66% | 1003.3 hPa | 0 mm | - | 120 W/m² | - |
| 1778171705 | 12.22° C | 64% | 1003.1 hPa | 0 mm | - | 136 W/m² | - |
| 1778171402 | 12.22° C | 63% | 1003.3 hPa | 0 mm | - | 184 W/m² | - |
| 1778171097 | 12.22° C | 66% | 1003.4 hPa | 0 mm | - | 265 W/m² | - |
| 1778170794 | 12.22° C | 64% | 1003.1 hPa | 0 mm | - | 231 W/m² | - |
| 1778170490 | 12.22° C | 65% | 1003.2 hPa | 0 mm | - | 217 W/m² | - |
| 1778170188 | 12.22° C | 64% | 1003.6 hPa | 0 mm | - | 191 W/m² | - |
| 1778169883 | 12.22° C | 65% | 1003.5 hPa | 0 mm | - | 234 W/m² | - |
| 1778169579 | 12.22° C | 67% | 1003.6 hPa | 0 mm | - | 254 W/m² | - |
| 1778169276 | 12.22° C | 67% | 1003.5 hPa | 0 mm | - | 255 W/m² | - |
| 1778168973 | 12.22° C | 67% | 1003.4 hPa | 0 mm | - | 277 W/m² | - |
| 1778168669 | 11.67° C | 72% | 1003.5 hPa | 0 mm | - | 341 W/m² | - |
| 1778168367 | 11.67° C | 72% | 1003.7 hPa | 0 mm | - | 148 W/m² | - |
| 1778168063 | 11.67° C | 69% | 1003.9 hPa | 0 mm | - | 148 W/m² | - |
| 1778167759 | 12.22° C | 68% | 1003.5 hPa | 0 mm | - | 150 W/m² | - |
| 1778167456 | 12.22° C | 71% | 1003.6 hPa | 0 mm | - | 327 W/m² | - |
| 1778167152 | 11.67° C | 72% | 1003.6 hPa | 0 mm | - | 196 W/m² | - |
| 1778166849 | 11.67° C | 70% | 1003.8 hPa | 0 mm | - | 141 W/m² | - |
| 1778166545 | 11.67° C | 72% | 1003.7 hPa | 0 mm | - | 137 W/m² | - |
| 1778166242 | 12.78° C | 72% | 1003.9 hPa | 0 mm | - | 844 W/m² | - |
| 1778165938 | 11.67° C | 71% | 1003.9 hPa | 0 mm | - | 877 W/m² | - |
| 1778165634 | 12.22° C | 76% | 1003.9 hPa | 0 mm | - | 882 W/m² | - |
* Rain latest hour (hover to see other rain measurements)
** Current wind speed in m/s (hover to see current wind gust speed)